Погода в Браззавиле

Республика Конго     4°12′21″S   15°14′33″E
темп.,
°C
ветер,
м/с
пор.,
м/с
влажн.,
%
обл.,
%
осадки,
мм/ч
давл.,
гПа
погр.,
м
24 июля, сб
сб2401:00+23зюз236165 0.0 1014211
04:00+22з1266100 0.0 1014174
07:00+22юз23646 0.0 1015286
10:00+28юз23445 0.0 1015924
13:00+34ююв12250 0.0 10111700
16:00+35ссз12220 0.0 10082041
19:00+31сз232793 0.0 1010107
22:00+28зюз24335 0.0 1012160
25 июля, вс
вс2501:00+25юз484421 0.0 1013559
04:00+22з36675 0.0 1013438
07:00+21з36744 0.0 1016462
10:00+27юз35485 0.0 1015975
13:00+34юз342834 0.0 10111743
16:00+36зюз232268 0.0 10082702
19:00+31з38305 0.0 1010326
22:00+28з263612 0.0 1011193
26 июля, пн
пн2601:00+26зюз36465 0.0 1012313
04:00+23зюз24575 0.0 1013289
07:00+23зюз25545 0.0 1014366
10:00+29юз352849 0.0 1014931
13:00+35юз3418100 0.0 10102001
16:00+37з331841 0.0 10073101
19:00+32з49265 0.0 1009446
22:00+28з383360 0.0 1012333
27 июля, вт
вт2701:00+25юз37486 0.0 1013391
04:00+22зюз246024 0.0 1013318
07:00+21зюз256674 0.0 1015494
10:00+27юз3443100 0.0 1015992
13:00+34ююз232811 0.0 10101574
16:00+35с122429 0.0 10081715
19:00+31сз243071 0.0 1009165
22:00+28з263689 0.0 1011233
28 июля, ср
ср2801:00+26зюз25435 0.0 1012202
04:00+24зюз245026 0.0 1012250
07:00+23зюз35615 0.0 1014451
10:00+28зюз234461 0.0 1014996
13:00+34юз222914 0.0 10101722
16:00+35в22255 0.0 10072572
19:00+31сз12302 0.0 100993
22:00+28зюз24403 0.0 1011200